Regional Weather Roundup
Issued by NWS Northern Indiana

Home | Current Version | Previous Version | Graphics & Text | Print | Product List | Glossary On
Versions: 1 2 3 4 5 6 7 8 9 10 11 12 13 14 15 16 17 18 19 20 21 22 23 24 25 26 27 28 29 30 31 32 33 34 35 36 37 38 39 40 41 42 43 44 45 46 47 48 49 50
151
ASUS43 KIWX 251900
RWRIWX

KIWX WEATHER ROUNDUP
NATIONAL WEATHER SERVICE NORTHERN INDIANA
200 PM EST SAT FEB 25 2017

NOTE: "FAIR" INDICATES FEW OR NO CLOUDS BELOW 12,000 FEET WITH NO
SIGNIFICANT WEATHER AND/OR OBSTRUCTIONS TO VISIBILITY.

* THESE STATIONS ARE NOT UNDER NWS QUALITY CONTROL. THEY ALSO MAY NOT
  REPORT WEATHER SUCH AS PRECIPITATION OR FOG.

INZ001>027-252000-
NORTHERN INDIANA

CITY           SKY/WX    TMP DP  RH WIND       PRES   REMARKS
GARY*          CLOUDY    28  14  54 W18       29.88R WCI  16
KNOX*          CLOUDY    27  -4  26 W20G25    29.87R WCI  13
SOUTH BEND     LGT SNOW  23  17  78 W17G28    29.84R WCI   9
GOSHEN         CLOUDY    25  16  68 W22       29.82R WCI  10
ANGOLA*        CLOUDY    25  18  74 W17       29.77R WCI  11
FORT WAYNE     FLURRIES  28  18  66 W26G32    29.82R WCI  13
PERU/GRISSOM   FLURRIES  27  18  69 W23G31    29.86R WCI  12

$$
INZ028>050-252000-
CENTRAL INDIANA

CITY           SKY/WX    TMP DP  RH WIND       PRES   REMARKS
LAFAYETTE      CLOUDY    26  19  74 W18G25    29.92S WCI  13
KOKOMO*        FLURRIES  27  18  69 W26       29.89R WCI  12
MUNCIE*        LGT SNOW  28  19  69 W24       29.87R WCI  14
INDIANAPOLIS   LGT SNOW  29  19  66 W18       29.93R WCI  16

$$
MIZ043>046-050>051-056>058-064>065-071>073-077>080-252000-
SOUTHWEST LOWER MICHIGAN

CITY           SKY/WX    TMP DP  RH WIND       PRES   REMARKS
BATTLE CREEK   LGT SNOW  26  20  77 W23G31    29.74R WCI  11
BENTON HARBOR  CLOUDY    26  16  65 W20G30    29.83R WCI  12
COLDWATER*     CLOUDY    27  19  72 W24G30    29.76R WCI  12
HILLSDALE*     FLURRIES  27  19  74 W20G29    29.71R WCI  13
HOLLAND        LGT SNOW  25  17  72 W13G25    29.78R WCI  14
GRAND RAPIDS   LGT SNOW  26  19  74 W17G24    29.73R WCI  13
KALAMAZOO      LGT SNOW  26  18  71 W18G30    29.77R WCI  13
STURGIS*       FLURRIES  25  18  74 W16G25    29.78R WCI  13
THREE RIVERS*  LGT SNOW  26  20  78 W14       29.79R WCI  14

$$
OHZ001>008-015>018-024>025-252000-
NORTHWEST OHIO

CITY           SKY/WX    TMP DP  RH WIND       PRES   REMARKS
DEFIANCE       LGT SNOW  27  19  72 W15G26    29.79R WCI  15
FINDLAY        CLOUDY    31  20  63 W29G38    29.77R WCI  16
TOLEDO EXPRESS CLOUDY    30  19  63 W26G37    29.74R WCI  16
TOLEDO METCALF CLOUDY    33  22  63 W29G36    29.74R WCI  19
LIMA           MIX PCPN  29  23  78 W24G35    29.80R WCI  15

$$
AND FOR LAKE MICHIGAN COASTAL AND OPEN LAKE BUOY OBSERVATIONS

STATION/POSITION TEMP    WIND        PRES    VSBY  WAVE
                 AIR SEA DIR/SP/G                  HT/PER
                 (F)     (DEG/KT/KT) (MB)    (MI)  (FT/S)
CALUMET HARBOR    26     260/  8/ 20 1010.7S
MICHIGAN CITY     24     240/ 26/ 29   N/A
BURNS HARBOR      26     260/ 19/ 23 1011.5S
SAINT JOSEPH      27     270/ 16/ 24 1010.2

$$
&&




USA.gov is the U.S. government's official web portal to all federal, state and local government web resources and services.